Location: Unspecified
(0.0000°N, 0.0000°E)
Time: 04:50:43
(UTC+00:00)

Hubble Space Telescope - Pass Details

Date: 16 April 2019
Orbit: 536 x 540 km, 28.5° (Epoch: 16 June)

Event Time Altitude Azimuth Distance (km) Brightness Sun altitude
Exits shadow 04:27:02 84° 157° (SSE) 541 0.6 -22.9°
Maximum altitude 04:27:03 84° 150° (SSE) 541 0.6 -22.9°
Drops below altitude 10° 04:31:11 10° 61° (ENE) 1,783 4.4 -21.8°
Sets 04:33:26 0° 61° (ENE) 2,671 5.6 -21.3°
